DateTimeUTC,F1_A11,F1_S11,BsB_S11,BsG_S11,BsR_S11,BbsB_S11,BbsG_S11,BbsR_S11,BaB_A11,BaG_A11,BaR_A11,Tu_S11,T_S11,Uu_S11,U_S11,P_S11,T1_A11
2021-06-16T21:00:00Z,00000200,20000000,,,,,,,0000.12,-000.02,0000.02,18.8,25.7,02.9,01.9,0668.8,31.1
2021-06-16T21:01:00Z,00000200,20000000,,,,,,,-000.02,0000.01,0000.42,18.8,25.7,02.9,01.9,0668.8,31.1
2021-06-16T21:02:00Z,00000200,20000000,,,,,,,-000.31,-000.06,0000.05,18.8,25.7,02.9,01.9,0668.8,31.1
2021-06-16T21:03:00Z,00000200,60000000,,,,,,,0000.68,0000.21,0000.12,18.8,25.7,02.9,01.9,0668.8,31.1
2021-06-16T21:04:00Z,00000200,40000000,0000.66,0000.59,0000.62,-000.01,0000.09,0000.29,-000.13,0000.08,-000.01,18.9,25.5,03.0,02.0,0669.7,31.1
2021-06-16T21:05:00Z,00000200,00000000,0000.21,0000.75,0000.59,0000.15,0000.16,0000.15,0000.42,0000.34,0000.13,18.9,25.4,02.9,02.0,0669.8,31.1
2021-06-16T21:06:00Z,00000200,00000000,0001.01,0000.79,0000.69,0000.01,0000.17,0000.16,-000.02,0000.22,0000.01,18.9,25.4,03.0,02.0,0669.8,31.1
2021-06-16T21:07:00Z,00000200,00000000,0000.66,0000.48,0000.54,-000.42,0000.29,0000.18,0000.35,0000.09,0000.34,18.9,25.4,03.1,02.1,0669.7,31.1
2021-06-16T21:08:00Z,00000200,00000000,0001.34,0000.80,0000.38,0000.21,0000.23,0000.53,0000.49,0000.18,0000.10,18.9,25.4,03.0,02.0,0669.8,31.1
2021-06-16T21:09:00Z,00000200,00000000,0000.75,0000.66,0000.29,0000.78,0000.22,0000.11,0000.14,0000.46,0000.28,18.9,25.4,03.0,02.0,0669.8,31.1
2021-06-16T21:10:00Z,00000200,00000000,0000.77,0000.62,0000.68,0000.49,0000.28,0000.47,0000.74,0000.70,0000.46,18.9,25.4,03.0,02.0,0669.8,31.1
2021-06-16T21:11:00Z,00000200,00000000,0000.75,0000.65,0000.39,0000.57,0000.08,0000.11,0000.32,0000.50,0000.32,18.9,25.4,02.9,01.9,0669.8,31.1
2021-06-16T21:12:00Z,00000200,00000000,0003.91,0002.37,0001.36,0000.68,0000.42,0000.51,0001.30,0001.21,0000.96,18.9,25.4,02.9,02.0,0669.8,31.1
2021-06-16T21:13:00Z,00000200,00000000,0010.42,0006.22,0003.52,0001.50,0001.46,0001.15,0004.71,0003.72,0002.74,18.9,25.4,03.0,02.0,0669.7,31.1
2021-06-16T21:14:00Z,00000200,00000000,0004.24,0002.36,0001.11,0000.69,0000.58,0000.03,0001.86,0001.42,0000.97,18.9,25.4,03.0,02.0,0669.8,31.1
2021-06-16T21:15:00Z,00000200,00010000,0001.27,0001.08,0000.75,0000.88,0000.42,0000.21,0000.90,0001.05,0000.65,18.9,25.4,02.9,02.0,0669.8,31.1
2021-06-16T21:16:00Z,00000200,00000000,0001.82,0000.50,0000.25,0000.31,-000.03,0000.09,0000.74,0000.54,0000.49,19.0,25.4,02.9,02.0,0669.8,31.1
2021-06-16T21:17:00Z,00000200,00000000,0001.37,0000.72,0000.08,0000.35,0000.47,-000.11,0001.20,0001.14,0000.53,19.1,25.5,02.9,01.9,0669.8,31.1
2021-06-16T21:18:00Z,00000200,00000000,0000.55,0001.06,0000.67,-000.44,0000.23,-000.08,0005.66,0004.96,0004.28,19.1,25.5,02.8,01.9,0669.8,31.1
2021-06-16T21:19:00Z,00000200,00000000,0000.69,0000.88,0000.48,-000.11,0000.24,0000.18,0004.45,0004.41,0003.09,19.1,25.5,02.8,01.9,0669.8,31.1
2021-06-16T21:20:00Z,00000200,00000000,0001.23,0000.77,0000.40,0000.65,0000.11,-000.01,0005.43,0004.78,0003.98,19.1,25.5,02.8,01.9,0669.8,31.1
2021-06-16T21:21:00Z,00000200,00000000,0001.36,0000.84,0000.19,0000.19,0000.30,0000.26,0008.13,0006.83,0005.17,19.1,25.5,02.9,01.9,0669.8,31.1
2021-06-16T21:22:00Z,00000200,00000000,0000.59,0000.71,0000.69,-000.11,0000.10,0000.27,0008.99,0008.53,0005.97,19.1,25.5,02.9,01.9,0669.8,31.1
2021-06-16T21:23:00Z,00000200,00000000,0001.24,0000.88,0000.71,0000.25,0000.28,0000.33,0005.52,0004.94,0003.64,19.1,25.5,02.8,01.9,0669.8,31.1
2021-06-16T21:24:00Z,00000200,00000000,0000.78,0000.80,0000.60,0000.25,0000.12,0000.18,0002.75,0002.86,0002.28,19.1,25.5,02.8,01.9,0669.8,31.1
2021-06-16T21:25:00Z,00000200,00000000,0000.65,0000.92,0000.48,-000.31,0000.29,0000.41,0006.15,0004.87,0003.78,19.1,25.5,02.8,01.9,0669.8,31.1
2021-06-16T21:26:00Z,00000200,00000000,0001.43,0000.93,0000.46,0000.41,0000.15,0000.23,0007.80,0007.17,0005.19,19.1,25.5,02.9,01.9,0669.8,31.1
2021-06-16T21:27:00Z,00000200,00000000,0001.72,0000.63,0000.54,0000.36,0000.22,0000.31,0006.37,0005.78,0004.73,19.1,25.4,02.8,01.9,0669.8,31.1
2021-06-16T21:28:00Z,00000200,00000000,-000.00,0000.92,0000.34,-000.17,0000.41,0000.00,0002.39,0001.97,0001.34,19.0,25.5,02.9,01.9,0669.8,31.1
2021-06-16T21:29:00Z,00000200,00000000,0000.56,0000.91,0000.75,0001.05,0000.29,0000.16,0002.33,0002.20,0001.83,19.1,25.5,02.9,02.0,0669.8,31.1
2021-06-16T21:30:00Z,00000200,00000000,0001.05,0000.90,0000.62,0000.49,0000.20,0000.06,0007.44,0006.61,0004.84,19.1,25.5,03.0,02.0,0669.7,31.1
2021-06-16T21:31:00Z,00000200,00000000,0001.43,0001.26,0001.03,-000.33,0000.11,0000.38,0021.85,0019.40,0014.61,19.1,25.5,02.9,01.9,0669.7,31.1
2021-06-16T21:32:00Z,00000200,00000000,0002.23,0001.76,0000.48,-000.09,0000.42,0000.22,0024.25,0022.05,0016.98,19.1,25.5,02.9,02.0,0669.7,31.1
2021-06-16T21:33:00Z,00000200,00000000,0002.12,0001.11,0000.70,0000.20,0000.18,0000.06,0025.82,0023.45,0017.33,19.1,25.5,02.9,02.0,0669.7,31.1
2021-06-16T21:34:00Z,00000200,00000000,0002.33,0001.60,0000.71,0000.87,0000.41,0000.33,0028.36,0025.04,0019.19,19.1,25.5,02.9,02.0,0669.8,31.1
2021-06-16T21:35:00Z,00000200,00000000,0002.04,0001.29,0000.67,0000.40,0000.49,0000.06,0023.32,0021.45,0016.36,19.1,25.5,02.9,02.0,0669.8,31.1
2021-06-16T21:36:00Z,00000200,00000000,0002.37,0001.63,0000.96,0000.51,0000.14,0000.04,0024.50,0021.68,0016.68,19.1,25.5,02.8,01.9,0669.8,31.1
2021-06-16T21:37:00Z,00000200,00000000,0001.88,0001.15,0000.38,0000.47,0000.40,0000.11,0021.33,0019.60,0014.56,19.1,25.5,02.7,01.8,0669.8,31.1
2021-06-16T21:38:00Z,00000200,00000000,0002.05,0001.18,0000.51,0000.39,0000.45,0000.30,0019.26,0016.96,0012.87,19.1,25.5,02.7,01.8,0669.8,31.1
2021-06-16T21:39:00Z,00000200,00000000,0001.22,0001.20,0000.69,0000.71,0000.30,0000.09,0017.77,0015.73,0012.31,19.1,25.5,02.8,01.9,0669.8,31.1
2021-06-16T21:40:00Z,00000200,00000000,0001.31,0001.29,0000.65,0000.09,0000.03,0000.33,0019.54,0018.06,0013.17,19.1,25.5,02.8,01.9,0669.8,31.1
2021-06-16T21:41:00Z,00000200,00000000,0001.11,0001.12,0000.95,0000.28,0000.30,0000.35,0020.08,0017.43,0013.60,19.0,25.5,02.7,01.8,0669.8,31.1
2021-06-16T21:42:00Z,00000200,00000000,0001.02,0001.14,0000.75,0000.42,0000.41,0000.11,0018.35,0016.38,0012.15,19.0,25.4,02.7,01.8,0669.8,31.1
2021-06-16T21:43:00Z,00000200,00000000,0001.10,0001.12,0000.72,0000.75,0000.20,0000.48,0017.13,0015.64,0011.77,19.0,25.4,02.7,01.8,0669.8,31.1
2021-06-16T21:44:00Z,00000200,00000000,0000.92,0001.16,0000.46,-000.04,0000.37,0000.11,0020.07,0018.06,0013.44,19.0,25.4,02.7,01.8,0669.8,31.1
2021-06-16T21:45:00Z,00000200,00000000,0001.87,0001.35,0000.98,0000.27,0000.43,0000.62,0023.97,0021.39,0016.53,19.0,25.4,02.8,01.9,0669.8,31.1
2021-06-16T21:46:00Z,00000200,00000000,0001.45,0001.13,0000.83,0000.25,0000.48,0000.16,0025.66,0023.23,0017.27,19.0,25.4,02.7,01.8,0669.8,31.1
2021-06-16T21:47:00Z,00000200,00000000,0001.17,0000.93,0000.69,0000.40,0000.55,0000.64,0019.69,0017.19,0013.32,19.0,25.4,02.9,01.9,0669.7,31.1
2021-06-16T21:48:00Z,00000200,00000000,0001.71,0001.36,0000.61,0000.71,0000.17,0000.12,0019.96,0018.06,0013.45,19.0,25.4,02.8,01.9,0669.7,31.1
2021-06-16T21:49:00Z,00000200,00000000,0001.50,0000.98,0000.68,0000.13,0000.33,0000.21,0016.30,0015.01,0011.34,19.0,25.4,02.8,01.9,0669.7,31.1
2021-06-16T21:50:00Z,00000200,00000000,0001.29,0000.83,0000.65,0000.23,0000.15,0000.03,0010.19,0008.53,0006.72,19.0,25.4,02.8,01.9,0669.7,31.1
2021-06-16T21:51:00Z,00000200,00000000,0001.33,0000.68,0000.63,-000.07,0000.23,0000.20,0007.79,0007.52,0005.47,18.9,25.4,02.9,01.9,0669.7,31.1
2021-06-16T21:52:00Z,00000200,00000000,0001.02,0000.81,0000.49,0000.27,0000.21,0000.30,0005.77,0005.07,0003.99,18.9,25.4,02.9,01.9,0669.7,31.1
2021-06-16T21:53:00Z,00000200,00000000,0000.81,0001.03,0000.50,-000.07,0000.16,0000.06,0002.69,0002.58,0001.81,18.9,25.4,02.9,02.0,0669.7,31.1
2021-06-16T21:54:00Z,00000200,00000000,0001.23,0000.81,0000.59,0000.18,0000.05,0000.31,0001.10,0000.73,0000.60,18.9,25.4,02.9,01.9,0669.7,31.1
2021-06-16T21:55:00Z,00000200,00000000,0001.13,0000.67,0000.46,-000.08,-000.08,0000.13,0000.40,0000.43,0000.45,18.9,25.4,03.0,02.0,0669.7,31.1
2021-06-16T21:56:00Z,00000200,00000000,0000.54,0000.93,0000.40,0000.02,0000.09,0000.16,0000.93,0000.70,0000.39,18.9,25.3,02.8,01.9,0669.7,31.1
2021-06-16T21:57:00Z,00000200,40000000,,,,,,,0000.55,0001.04,0000.50,19.0,25.4,02.8,01.9,0669.7,31.1
2021-06-16T21:58:00Z,00000200,60000000,,,,,,,0000.02,-000.37,-000.10,18.7,25.4,02.9,01.9,0668.7,31.1
2021-06-16T21:59:00Z,00000200,20000000,,,,,,,0000.02,0000.09,0000.12,18.7,25.5,02.9,01.9,0668.7,31.1
